Back to catalog

STARLINK-37133

AliveCommunicationsVLEO
NORAD 68265·PAYLOAD·🇺🇸 United States

Launched Mar 19, 2026 from Vandenberg Space Force Base

Loading…

Next Passes (next 24 hours)

TLE

FreshSource: CelesTrak SupGP

Epoch: Sep 14, 2026, 21:07 UTC

1 68265C 26055D   26257.88034722 -.00050013  00000+0 -14771-2 0  2570
2 68265  53.1570 157.8047 0000837  98.0534 306.4983 15.34428465    15

Track STARLINK-37133 in real time with AllMySat

Download on the App Store